This is the latest recevied weather packets stored in our database for station/object OH6HPS. If no packets are shown the sender has not sent any weather packets the latest 10 day(s).
| Time | Temp. | Humidity | Pressure | Rain* | Wind** | Luminosity | Snow |
|---|---|---|---|---|---|---|---|
| 1788586617 | 6.67° C | 97% | 994.1 hPa | 0 mm | - | 102 W/m² | - |
| 1788586017 | 6.11° C | 97% | 994 hPa | 0 mm | - | 55 W/m² | - |
| 1788585416 | 5° C | 96% | 994 hPa | 0 mm | - | 62 W/m² | - |
| 1788584816 | 5° C | 96% | 994 hPa | 0 mm | - | 39 W/m² | - |
| 1788565002 | 6.11° C | 94% | 994.1 hPa | 0 mm | - | 0 W/m² | - |
| 1788564401 | 6.11° C | 94% | 994.1 hPa | 0 mm | - | 0 W/m² | - |
| 1788563802 | 6.11° C | 94% | 994.1 hPa | 0 mm | - | 0 W/m² | - |
| 1788561401 | 6.67° C | 94% | 994.4 hPa | 0 mm | - | 0 W/m² | - |
| 1788560198 | 6.67° C | 93% | 994.6 hPa | 0 mm | - | 0 W/m² | - |
| 1788559597 | 7.22° C | 93% | 994.6 hPa | 0 mm | - | 0 W/m² | - |
| 1788558996 | 7.22° C | 94% | 994.7 hPa | 0 mm | - | 0 W/m² | - |
| 1788557795 | 7.78° C | 94% | 994.8 hPa | 0 mm | - | 0 W/m² | - |
| 1788557193 | 7.78° C | 93% | 994.8 hPa | 0 mm | - | 0 W/m² | - |
| 1788556591 | 7.78° C | 93% | 995 hPa | 0 mm | - | 0 W/m² | - |
| 1788554189 | 8.33° C | 94% | 995.2 hPa | 0 mm | - | 0 W/m² | - |
| 1788553589 | 8.33° C | 93% | 995.2 hPa | 0 mm | - | 0 W/m² | - |
| 1788552990 | 8.89° C | 94% | 995.3 hPa | 0 mm | - | 0 W/m² | - |
| 1788552389 | 8.89° C | 93% | 995.3 hPa | 0 mm | - | 0 W/m² | - |
| 1788550588 | 8.89° C | 92% | 995.5 hPa | 0 mm | - | 0 W/m² | - |
| 1788549988 | 9.44° C | 92% | 995.7 hPa | 0 mm | - | 0 W/m² | - |
| 1788549386 | 9.44° C | 92% | 995.7 hPa | 0 mm | - | 0 W/m² | - |
| 1788547575 | 10° C | 90% | 995.8 hPa | 0 mm | - | 0 W/m² | - |
| 1788546973 | 10.56° C | 90% | 995.9 hPa | 0 mm | - | 0 W/m² | - |
| 1788546373 | 10.56° C | 90% | 996 hPa | 0 mm | - | 0 W/m² | - |
| 1788545771 | 11.11° C | 90% | 996.1 hPa | 0 mm | - | 0 W/m² | - |
* Rain latest hour (hover to see other rain measurements)
** Current wind speed in m/s (hover to see current wind gust speed)